Year,Month,Day,Hour,Minute,Value (Times are PST for temperature in C)
2015,10,12,00,00,12.90
2015,10,12,00,01,12.90
2015,10,12,00,02,12.90
2015,10,12,00,03,12.90
2015,10,12,00,04,12.90
2015,10,12,00,05,12.90
2015,10,12,00,06,12.90
2015,10,12,00,07,12.90
2015,10,12,00,08,12.90
2015,10,12,00,09,12.90
2015,10,12,00,10,12.90
2015,10,12,00,11,12.90
2015,10,12,00,12,12.90
2015,10,12,00,13,12.90
2015,10,12,00,14,12.90
2015,10,12,00,15,12.90
2015,10,12,00,16,12.90
2015,10,12,00,17,12.80
2015,10,12,00,18,12.90
2015,10,12,00,19,12.80
2015,10,12,00,20,12.80
2015,10,12,00,21,12.80
2015,10,12,00,22,12.80
2015,10,12,00,23,12.80
2015,10,12,00,24,12.80
2015,10,12,00,25,12.90
2015,10,12,00,26,12.90
2015,10,12,00,27,12.90
2015,10,12,00,28,12.90
2015,10,12,00,29,12.90
2015,10,12,00,30,12.90
2015,10,12,00,31,12.90
2015,10,12,00,32,12.90
2015,10,12,00,33,12.90
2015,10,12,00,34,12.90
2015,10,12,00,35,12.80
2015,10,12,00,36,12.80
2015,10,12,00,37,12.80
2015,10,12,00,38,12.80
2015,10,12,00,39,12.80
2015,10,12,00,40,12.80
2015,10,12,00,41,12.80
2015,10,12,00,42,12.80
2015,10,12,00,43,12.80
2015,10,12,00,44,12.70
2015,10,12,00,45,12.70
2015,10,12,00,46,12.70
2015,10,12,00,47,12.70
2015,10,12,00,48,12.70
2015,10,12,00,49,12.70
2015,10,12,00,50,12.70
2015,10,12,00,51,12.60
2015,10,12,00,52,12.60
2015,10,12,00,53,12.60
2015,10,12,00,54,12.60
2015,10,12,00,55,12.60
2015,10,12,00,56,12.60
2015,10,12,00,57,12.60
2015,10,12,00,58,12.60
2015,10,12,00,59,12.60
2015,10,12,01,00,12.60
2015,10,12,01,01,12.60
2015,10,12,01,02,12.60
2015,10,12,01,03,12.60
2015,10,12,01,04,12.60
2015,10,12,01,05,12.60
2015,10,12,01,06,12.60
2015,10,12,01,07,12.60
2015,10,12,01,08,12.60
2015,10,12,01,09,12.60
2015,10,12,01,10,12.60
2015,10,12,01,11,12.60
2015,10,12,01,12,12.50
2015,10,12,01,13,12.60
2015,10,12,01,14,12.50
2015,10,12,01,15,12.50
2015,10,12,01,16,12.50
2015,10,12,01,17,12.50
2015,10,12,01,18,12.50
2015,10,12,01,19,12.50
2015,10,12,01,20,12.50
2015,10,12,01,21,12.50
2015,10,12,01,22,12.50
2015,10,12,01,23,12.40
2015,10,12,01,24,12.40
2015,10,12,01,25,12.40
2015,10,12,01,26,12.40
2015,10,12,01,27,12.40
2015,10,12,01,28,12.40
2015,10,12,01,29,12.40
2015,10,12,01,30,12.40
2015,10,12,01,31,12.40
2015,10,12,01,32,12.40
2015,10,12,01,33,12.40
2015,10,12,01,34,12.30
2015,10,12,01,35,12.30
2015,10,12,01,36,12.30
2015,10,12,01,37,12.30
2015,10,12,01,38,12.30
2015,10,12,01,39,12.30
2015,10,12,01,40,12.30
2015,10,12,01,41,12.30
2015,10,12,01,42,12.30
2015,10,12,01,43,12.30
2015,10,12,01,44,12.20
2015,10,12,01,45,12.20
2015,10,12,01,46,12.20
2015,10,12,01,47,12.20
2015,10,12,01,48,12.20
2015,10,12,01,49,12.20
2015,10,12,01,50,12.20
2015,10,12,01,51,12.20
2015,10,12,01,52,12.20
2015,10,12,01,53,12.10
2015,10,12,01,54,12.10
2015,10,12,01,55,12.10
2015,10,12,01,56,12.10
2015,10,12,01,57,12.10
2015,10,12,01,58,12.10
2015,10,12,01,59,12.10
2015,10,12,02,00,12.10
2015,10,12,02,01,12.10
2015,10,12,02,02,12.10
2015,10,12,02,03,12.10
2015,10,12,02,04,12.10
2015,10,12,02,05,12.10
2015,10,12,02,06,12.10
2015,10,12,02,07,12.10
2015,10,12,02,08,12.10
2015,10,12,02,09,12.10
2015,10,12,02,10,12.10
2015,10,12,02,11,12.10
2015,10,12,02,12,12.10
2015,10,12,02,13,12.10
2015,10,12,02,14,12.10
2015,10,12,02,15,12.10
2015,10,12,02,16,12.10
2015,10,12,02,17,12.10
2015,10,12,02,18,12.10
2015,10,12,02,19,12.10
2015,10,12,02,20,12.10
2015,10,12,02,21,12.10
2015,10,12,02,22,12.10
2015,10,12,02,23,12.10
2015,10,12,02,24,12.10
2015,10,12,02,25,12.10
2015,10,12,02,26,12.10
2015,10,12,02,27,12.10
2015,10,12,02,28,12.10
2015,10,12,02,29,12.10
2015,10,12,02,30,12.10
2015,10,12,02,31,12.10
2015,10,12,02,32,12.10
2015,10,12,02,33,12.10
2015,10,12,02,34,12.10
2015,10,12,02,35,12.10
2015,10,12,02,36,12.10
2015,10,12,02,37,12.10
2015,10,12,02,38,12.10
2015,10,12,02,39,12.10
2015,10,12,02,40,12.10
2015,10,12,02,41,12.10
2015,10,12,02,42,12.10
2015,10,12,02,43,12.10
2015,10,12,02,44,12.10
2015,10,12,02,45,12.10
2015,10,12,02,46,12.10
2015,10,12,02,47,12.10
2015,10,12,02,48,12.10
2015,10,12,02,49,12.10
2015,10,12,02,50,12.10
2015,10,12,02,51,12.10
2015,10,12,02,52,12.10
2015,10,12,02,53,12.10
2015,10,12,02,54,12.10
2015,10,12,02,55,12.10
2015,10,12,02,56,12.10
2015,10,12,02,57,12.20
2015,10,12,02,58,12.20
2015,10,12,02,59,12.20
2015,10,12,03,00,12.20
2015,10,12,03,01,12.20
2015,10,12,03,02,12.10
2015,10,12,03,03,12.10
2015,10,12,03,04,12.10
2015,10,12,03,05,12.10
2015,10,12,03,06,12.10
2015,10,12,03,07,12.10
2015,10,12,03,08,12.10
2015,10,12,03,09,12.10
2015,10,12,03,10,12.20
2015,10,12,03,11,12.20
2015,10,12,03,12,12.20
2015,10,12,03,13,12.20
2015,10,12,03,14,12.20
2015,10,12,03,15,12.20
2015,10,12,03,16,12.20
2015,10,12,03,17,12.20
2015,10,12,03,18,12.20
2015,10,12,03,19,12.20
2015,10,12,03,20,12.20
2015,10,12,03,21,12.20
2015,10,12,03,22,12.20
2015,10,12,03,23,12.20
2015,10,12,03,24,12.20
2015,10,12,03,25,12.20
2015,10,12,03,26,12.20
2015,10,12,03,27,12.20
2015,10,12,03,28,12.30
2015,10,12,03,29,12.30
2015,10,12,03,30,12.30
2015,10,12,03,31,12.30
2015,10,12,03,32,12.30
2015,10,12,03,33,12.30
2015,10,12,03,34,12.30
2015,10,12,03,35,12.30
2015,10,12,03,36,12.30
2015,10,12,03,37,12.30
2015,10,12,03,38,12.30
2015,10,12,03,39,12.30
2015,10,12,03,40,12.30
2015,10,12,03,41,12.30
2015,10,12,03,42,12.30
2015,10,12,03,43,12.40
2015,10,12,03,44,12.40
2015,10,12,03,45,12.40
2015,10,12,03,46,12.40
2015,10,12,03,47,12.40
2015,10,12,03,48,12.40
2015,10,12,03,49,12.40
2015,10,12,03,50,12.40
2015,10,12,03,51,12.50
2015,10,12,03,52,12.50
2015,10,12,03,53,12.50
2015,10,12,03,54,12.50
2015,10,12,03,55,12.50
2015,10,12,03,56,12.60
2015,10,12,03,57,12.60
2015,10,12,03,58,12.60
2015,10,12,03,59,12.60
2015,10,12,04,00,12.60
2015,10,12,04,01,12.60
2015,10,12,04,02,12.60
2015,10,12,04,03,12.60
2015,10,12,04,04,12.70
2015,10,12,04,05,12.70
2015,10,12,04,06,12.70
2015,10,12,04,07,12.70
2015,10,12,04,08,12.70
2015,10,12,04,09,12.70
2015,10,12,04,10,12.70
2015,10,12,04,11,12.70
2015,10,12,04,12,12.70
2015,10,12,04,13,12.70
2015,10,12,04,14,12.70
2015,10,12,04,15,12.70
2015,10,12,04,16,12.70
2015,10,12,04,17,12.70
2015,10,12,04,18,12.70
2015,10,12,04,19,12.70
2015,10,12,04,20,12.70
2015,10,12,04,21,12.70
2015,10,12,04,22,12.70
2015,10,12,04,23,12.70
2015,10,12,04,24,12.70
2015,10,12,04,25,12.80
2015,10,12,04,26,12.80
2015,10,12,04,27,12.80
2015,10,12,04,28,12.80
2015,10,12,04,29,12.80
2015,10,12,04,30,12.80
2015,10,12,04,31,12.80
2015,10,12,04,32,12.80
2015,10,12,04,33,12.80
2015,10,12,04,34,12.80
2015,10,12,04,35,12.80
2015,10,12,04,36,12.80
2015,10,12,04,37,12.80
2015,10,12,04,38,12.80
2015,10,12,04,39,12.80
2015,10,12,04,40,12.80
2015,10,12,04,41,12.80
2015,10,12,04,42,12.80
2015,10,12,04,43,12.90
2015,10,12,04,44,12.90
2015,10,12,04,45,12.90
2015,10,12,04,46,12.90
2015,10,12,04,47,12.90
2015,10,12,04,48,12.90
2015,10,12,04,49,12.90
2015,10,12,04,50,12.90
2015,10,12,04,51,12.90
2015,10,12,04,52,13.00
2015,10,12,04,53,13.00
2015,10,12,04,54,13.00
2015,10,12,04,55,13.00
2015,10,12,04,56,13.00
2015,10,12,04,57,13.00
2015,10,12,04,58,13.00
2015,10,12,04,59,13.00
2015,10,12,05,00,13.00
2015,10,12,05,01,13.00
2015,10,12,05,02,13.00
2015,10,12,05,03,13.00
2015,10,12,05,04,13.00
2015,10,12,05,05,13.00
2015,10,12,05,06,13.00
2015,10,12,05,07,13.00
2015,10,12,05,08,13.10
2015,10,12,05,09,13.10
2015,10,12,05,10,13.10
2015,10,12,05,11,13.10
2015,10,12,05,12,13.10
2015,10,12,05,13,13.10
2015,10,12,05,14,13.10
2015,10,12,05,15,13.10
2015,10,12,05,16,13.10
2015,10,12,05,17,13.10
2015,10,12,05,18,13.10
2015,10,12,05,19,13.10
2015,10,12,05,20,13.10
2015,10,12,05,21,13.10
2015,10,12,05,22,13.10
2015,10,12,05,23,13.10
2015,10,12,05,24,13.10
2015,10,12,05,25,13.10
2015,10,12,05,26,13.10
2015,10,12,05,27,13.10
2015,10,12,05,28,13.10
2015,10,12,05,29,13.10
2015,10,12,05,30,13.10
2015,10,12,05,31,13.10
2015,10,12,05,32,13.10
2015,10,12,05,33,13.10
2015,10,12,05,34,13.10
2015,10,12,05,35,13.10
2015,10,12,05,36,13.10
2015,10,12,05,37,13.10
2015,10,12,05,38,13.10
2015,10,12,05,39,13.10
2015,10,12,05,40,13.10
2015,10,12,05,41,13.10
2015,10,12,05,42,13.10
2015,10,12,05,43,13.10
2015,10,12,05,44,13.10
2015,10,12,05,45,13.10
2015,10,12,05,46,13.10
2015,10,12,05,47,13.00
2015,10,12,05,48,13.00
2015,10,12,05,49,12.90
2015,10,12,05,50,12.90
2015,10,12,05,51,12.90
2015,10,12,05,52,12.80
2015,10,12,05,53,12.80
2015,10,12,05,54,12.80
2015,10,12,05,55,12.70
2015,10,12,05,56,12.60
2015,10,12,05,57,12.60
2015,10,12,05,58,12.50
2015,10,12,05,59,12.50
2015,10,12,06,00,12.40
2015,10,12,06,01,12.40
2015,10,12,06,02,12.40
2015,10,12,06,03,12.40
2015,10,12,06,04,12.30
2015,10,12,06,05,12.30
2015,10,12,06,06,12.30
2015,10,12,06,07,12.30
2015,10,12,06,08,12.20
2015,10,12,06,09,12.20
2015,10,12,06,10,12.20
2015,10,12,06,11,12.20
2015,10,12,06,12,12.20
2015,10,12,06,13,12.20
2015,10,12,06,14,12.20
2015,10,12,06,15,12.10
2015,10,12,06,16,12.10
2015,10,12,06,17,12.10
2015,10,12,06,18,12.10
2015,10,12,06,19,12.10
2015,10,12,06,20,12.00
2015,10,12,06,21,12.00
2015,10,12,06,22,12.00
2015,10,12,06,23,12.00
2015,10,12,06,24,12.00
2015,10,12,06,25,12.00
2015,10,12,06,26,12.00
2015,10,12,06,27,12.00
2015,10,12,06,28,12.00
2015,10,12,06,29,12.00
2015,10,12,06,30,11.90
2015,10,12,06,31,11.90
2015,10,12,06,32,11.90
2015,10,12,06,33,11.90
2015,10,12,06,34,11.90
2015,10,12,06,35,11.90
2015,10,12,06,36,11.90
2015,10,12,06,37,11.90
2015,10,12,06,38,11.90
2015,10,12,06,39,11.90
2015,10,12,06,40,11.90
2015,10,12,06,41,11.90
2015,10,12,06,42,11.90
2015,10,12,06,43,11.90
2015,10,12,06,44,11.90
2015,10,12,06,45,11.90
2015,10,12,06,46,11.90
2015,10,12,06,47,11.90
2015,10,12,06,48,11.90
2015,10,12,06,49,11.90
2015,10,12,06,50,11.90
2015,10,12,06,51,11.90
2015,10,12,06,52,11.90
2015,10,12,06,53,11.80
2015,10,12,06,54,11.80
2015,10,12,06,55,11.80
2015,10,12,06,56,11.70
2015,10,12,06,57,11.70
2015,10,12,06,58,11.70
2015,10,12,06,59,11.70
2015,10,12,07,00,11.70
2015,10,12,07,01,11.60
2015,10,12,07,02,11.60
2015,10,12,07,03,11.60
2015,10,12,07,04,11.60
2015,10,12,07,05,11.60
2015,10,12,07,06,11.60
2015,10,12,07,07,11.50
2015,10,12,07,08,11.50
2015,10,12,07,09,11.50
2015,10,12,07,10,11.40
2015,10,12,07,11,11.40
2015,10,12,07,12,11.40
2015,10,12,07,13,11.40
2015,10,12,07,14,11.30
2015,10,12,07,15,11.30
2015,10,12,07,16,11.20
2015,10,12,07,17,11.10
2015,10,12,07,18,11.10
2015,10,12,07,19,11.00
2015,10,12,07,20,11.00
2015,10,12,07,21,10.90
2015,10,12,07,22,10.90
2015,10,12,07,23,10.90
2015,10,12,07,24,10.80
2015,10,12,07,25,10.80
2015,10,12,07,26,10.80
2015,10,12,07,27,10.80
2015,10,12,07,28,10.70
2015,10,12,07,29,10.70
2015,10,12,07,30,10.70
2015,10,12,07,31,10.70
2015,10,12,07,32,10.70
2015,10,12,07,33,10.70
2015,10,12,07,34,10.60
2015,10,12,07,35,10.60
2015,10,12,07,36,10.60
2015,10,12,07,37,10.60
2015,10,12,07,38,10.60
2015,10,12,07,39,10.60
2015,10,12,07,40,10.60
2015,10,12,07,41,10.50
2015,10,12,07,42,10.50
2015,10,12,07,43,10.50
2015,10,12,07,44,10.50
2015,10,12,07,45,10.50
2015,10,12,07,46,10.50
2015,10,12,07,47,10.50
2015,10,12,07,48,10.40
2015,10,12,07,49,10.40
2015,10,12,07,50,10.40
2015,10,12,07,51,10.40
2015,10,12,07,52,10.40
2015,10,12,07,53,10.40
2015,10,12,07,54,10.40
2015,10,12,07,55,10.40
2015,10,12,07,56,10.40
2015,10,12,07,57,10.40
2015,10,12,07,58,10.40
2015,10,12,07,59,10.40
2015,10,12,08,00,10.40
2015,10,12,08,01,10.40
2015,10,12,08,02,10.40
2015,10,12,08,03,10.50
2015,10,12,08,04,10.50
2015,10,12,08,05,10.50
2015,10,12,08,06,10.50
2015,10,12,08,07,10.50
2015,10,12,08,08,10.50
2015,10,12,08,09,10.50
2015,10,12,08,10,10.50
2015,10,12,08,11,10.50
2015,10,12,08,12,10.50
2015,10,12,08,13,10.50
2015,10,12,08,14,10.50
2015,10,12,08,15,10.50
2015,10,12,08,16,10.50
2015,10,12,08,17,10.50
2015,10,12,08,18,10.50
2015,10,12,08,19,10.50
2015,10,12,08,20,10.50
2015,10,12,08,21,10.50
2015,10,12,08,22,10.50
2015,10,12,08,23,10.50
2015,10,12,08,24,10.50
2015,10,12,08,25,10.50
2015,10,12,08,26,10.50
2015,10,12,08,27,10.50
2015,10,12,08,28,10.50
2015,10,12,08,29,10.50
2015,10,12,08,30,10.50
2015,10,12,08,31,10.50
2015,10,12,08,32,10.50
2015,10,12,08,33,10.50
2015,10,12,08,34,10.50
2015,10,12,08,35,10.50
2015,10,12,08,36,10.50
2015,10,12,08,37,10.50
2015,10,12,08,38,10.50
2015,10,12,08,39,10.50
2015,10,12,08,40,10.50
2015,10,12,08,41,10.50
2015,10,12,08,42,10.50
2015,10,12,08,43,10.50
2015,10,12,08,44,10.50
2015,10,12,08,45,10.50
2015,10,12,08,46,10.50
2015,10,12,08,47,10.50
2015,10,12,08,48,10.50
2015,10,12,08,49,10.50
2015,10,12,08,50,10.50
2015,10,12,08,51,10.40
2015,10,12,08,52,10.50
2015,10,12,08,53,10.50
2015,10,12,08,54,10.50
2015,10,12,08,55,10.50
2015,10,12,08,56,10.60
2015,10,12,08,57,10.60
2015,10,12,08,58,10.60
2015,10,12,08,59,10.60
2015,10,12,09,00,10.60
2015,10,12,09,01,10.60
2015,10,12,09,02,10.60
2015,10,12,09,03,10.60
2015,10,12,09,04,10.70
2015,10,12,09,05,10.70
2015,10,12,09,06,10.80
2015,10,12,09,07,10.80
2015,10,12,09,08,10.80
2015,10,12,09,09,10.80
2015,10,12,09,10,10.90
2015,10,12,09,11,10.90
2015,10,12,09,12,11.00
2015,10,12,09,13,11.00
2015,10,12,09,14,11.10
2015,10,12,09,15,11.10
2015,10,12,09,16,11.10
2015,10,12,09,17,11.20
2015,10,12,09,18,11.20
2015,10,12,09,19,11.30
2015,10,12,09,20,11.30
2015,10,12,09,21,11.30
2015,10,12,09,22,11.30
2015,10,12,09,23,11.30
2015,10,12,09,24,11.40
2015,10,12,09,25,11.40
2015,10,12,09,26,11.40
2015,10,12,09,27,11.40
2015,10,12,09,28,11.50
2015,10,12,09,29,11.50
2015,10,12,09,30,11.50
2015,10,12,09,31,11.50
2015,10,12,09,32,11.50
2015,10,12,09,33,11.50
2015,10,12,09,34,11.50
2015,10,12,09,35,11.50
2015,10,12,09,36,11.60
2015,10,12,09,37,11.60
2015,10,12,09,38,11.60
2015,10,12,09,39,11.60
2015,10,12,09,40,11.60
2015,10,12,09,41,11.60
2015,10,12,09,42,11.60
2015,10,12,09,43,11.60
2015,10,12,09,44,11.60
2015,10,12,09,45,11.70
2015,10,12,09,46,11.70
2015,10,12,09,47,11.70
2015,10,12,09,48,11.70
2015,10,12,09,49,11.70
2015,10,12,09,50,11.70
2015,10,12,09,51,11.70
2015,10,12,09,52,11.70
2015,10,12,09,53,11.70
2015,10,12,09,54,11.70
2015,10,12,09,55,11.80
2015,10,12,09,56,11.80
2015,10,12,09,57,11.80
2015,10,12,09,58,11.90
2015,10,12,09,59,11.90
2015,10,12,10,00,11.90
2015,10,12,10,01,12.00
2015,10,12,10,02,12.00
2015,10,12,10,03,12.00
2015,10,12,10,04,12.10
2015,10,12,10,05,12.10
2015,10,12,10,06,12.20
2015,10,12,10,07,12.20
2015,10,12,10,08,12.20
2015,10,12,10,09,12.20
2015,10,12,10,10,12.30
2015,10,12,10,11,12.30
2015,10,12,10,12,12.30
2015,10,12,10,13,12.40
2015,10,12,10,14,12.40
2015,10,12,10,15,12.40
2015,10,12,10,16,12.30
2015,10,12,10,17,12.30
2015,10,12,10,18,12.30
2015,10,12,10,19,12.30
2015,10,12,10,20,12.40
2015,10,12,10,21,12.40
2015,10,12,10,22,12.40
2015,10,12,10,23,12.40
2015,10,12,10,24,12.50
2015,10,12,10,25,12.50
2015,10,12,10,26,12.50
2015,10,12,10,27,12.40
2015,10,12,10,28,12.50
2015,10,12,10,29,12.50
2015,10,12,10,30,12.50
2015,10,12,10,31,12.60
2015,10,12,10,32,12.60
2015,10,12,10,33,12.60
2015,10,12,10,34,12.60
2015,10,12,10,35,12.60
2015,10,12,10,36,12.70
2015,10,12,10,37,12.70
2015,10,12,10,38,12.80
2015,10,12,10,39,12.80
2015,10,12,10,40,12.90
2015,10,12,10,41,12.90
2015,10,12,10,42,12.90
2015,10,12,10,43,12.90
2015,10,12,10,44,12.90
2015,10,12,10,45,12.90
2015,10,12,10,46,12.90
2015,10,12,10,47,13.00
2015,10,12,10,48,13.00
2015,10,12,10,49,13.10
2015,10,12,10,50,13.10
2015,10,12,10,51,13.10
2015,10,12,10,52,13.20
2015,10,12,10,53,13.20
2015,10,12,10,54,13.20
2015,10,12,10,55,13.30
2015,10,12,10,56,13.30
2015,10,12,10,57,13.30
2015,10,12,10,58,13.30
2015,10,12,10,59,13.30
2015,10,12,11,00,13.30
2015,10,12,11,01,13.40
2015,10,12,11,02,13.40
2015,10,12,11,03,13.40
2015,10,12,11,04,13.40
2015,10,12,11,05,13.40
2015,10,12,11,06,13.40
2015,10,12,11,07,13.40
2015,10,12,11,08,13.50
2015,10,12,11,09,13.50
2015,10,12,11,10,13.60
2015,10,12,11,11,13.60
2015,10,12,11,12,13.60
2015,10,12,11,13,13.50
2015,10,12,11,14,13.50
2015,10,12,11,15,13.60
2015,10,12,11,16,13.60
2015,10,12,11,17,13.60
2015,10,12,11,18,13.60
2015,10,12,11,19,13.60
2015,10,12,11,20,13.60
2015,10,12,11,21,13.60
2015,10,12,11,22,13.70
2015,10,12,11,23,13.70
2015,10,12,11,24,13.70
2015,10,12,11,25,13.80
2015,10,12,11,26,13.80
2015,10,12,11,27,13.80
2015,10,12,11,28,13.90
2015,10,12,11,29,13.90
2015,10,12,11,30,13.90
2015,10,12,11,31,14.00
2015,10,12,11,32,14.00
2015,10,12,11,33,14.00
2015,10,12,11,34,14.00
2015,10,12,11,35,14.10
2015,10,12,11,36,14.10
2015,10,12,11,37,14.20
2015,10,12,11,38,14.20
2015,10,12,11,39,14.20
2015,10,12,11,40,14.20
2015,10,12,11,41,14.20
2015,10,12,11,42,14.20
2015,10,12,11,43,14.20
2015,10,12,11,44,14.30
2015,10,12,11,45,14.30
2015,10,12,11,46,14.30
2015,10,12,11,47,14.30
2015,10,12,11,48,14.30
2015,10,12,11,49,14.30
2015,10,12,11,50,14.20
2015,10,12,11,51,14.20
2015,10,12,11,52,14.20
2015,10,12,11,53,14.20
2015,10,12,11,54,14.20
2015,10,12,11,55,14.20
2015,10,12,11,56,14.20
2015,10,12,11,57,14.20
2015,10,12,11,58,14.20
2015,10,12,11,59,14.20
2015,10,12,12,00,14.30
2015,10,12,12,01,14.40
2015,10,12,12,02,14.50
2015,10,12,12,03,14.50
2015,10,12,12,04,14.60
2015,10,12,12,05,14.60
2015,10,12,12,06,14.60
2015,10,12,12,07,14.70
2015,10,12,12,08,14.70
2015,10,12,12,09,14.70
2015,10,12,12,10,14.70
2015,10,12,12,11,14.70
2015,10,12,12,12,14.70
2015,10,12,12,13,14.80
2015,10,12,12,14,14.80
2015,10,12,12,15,14.80
2015,10,12,12,16,14.80
2015,10,12,12,17,14.80
2015,10,12,12,18,14.70
2015,10,12,12,19,14.70
2015,10,12,12,20,14.70
2015,10,12,12,21,14.60
2015,10,12,12,22,14.60
2015,10,12,12,23,14.60
2015,10,12,12,24,14.50
2015,10,12,12,25,14.50
2015,10,12,12,26,14.50
2015,10,12,12,27,14.50
2015,10,12,12,28,14.50
2015,10,12,12,29,14.60
2015,10,12,12,30,14.60
2015,10,12,12,31,14.60
2015,10,12,12,32,14.70
2015,10,12,12,33,14.70
2015,10,12,12,34,14.70
2015,10,12,12,35,14.70
2015,10,12,12,36,14.70
2015,10,12,12,37,14.70
2015,10,12,12,38,14.70
2015,10,12,12,39,14.70
2015,10,12,12,40,14.70
2015,10,12,12,41,14.70
2015,10,12,12,42,14.70
2015,10,12,12,43,14.70
2015,10,12,12,44,14.60
2015,10,12,12,45,14.50
2015,10,12,12,46,14.40
2015,10,12,12,47,14.30
2015,10,12,12,48,14.30
2015,10,12,12,49,14.20
2015,10,12,12,50,14.20
2015,10,12,12,51,14.20
2015,10,12,12,52,14.20
2015,10,12,12,53,14.20
2015,10,12,12,54,14.30
2015,10,12,12,55,14.30
2015,10,12,12,56,14.40
2015,10,12,12,57,14.40
2015,10,12,12,58,14.50
2015,10,12,12,59,14.50
2015,10,12,13,00,14.50
2015,10,12,13,01,14.60
2015,10,12,13,02,14.60
2015,10,12,13,03,14.70
2015,10,12,13,04,14.70
2015,10,12,13,05,14.70
2015,10,12,13,06,14.80
2015,10,12,13,07,14.80
2015,10,12,13,08,14.80
2015,10,12,13,09,14.80
2015,10,12,13,10,14.80
2015,10,12,13,11,14.80
2015,10,12,13,12,14.80
2015,10,12,13,13,14.80
2015,10,12,13,14,14.80
2015,10,12,13,15,14.80
2015,10,12,13,16,14.80
2015,10,12,13,17,14.80
2015,10,12,13,18,14.80
2015,10,12,13,19,14.80
2015,10,12,13,20,14.90
2015,10,12,13,21,14.90
2015,10,12,13,22,14.90
2015,10,12,13,23,15.00
2015,10,12,13,24,15.00
2015,10,12,13,25,15.00
2015,10,12,13,26,15.00
2015,10,12,13,27,15.10
2015,10,12,13,28,15.10
2015,10,12,13,29,15.10
2015,10,12,13,30,15.10
2015,10,12,13,31,15.10
2015,10,12,13,32,15.20
2015,10,12,13,33,15.20
2015,10,12,13,34,15.30
2015,10,12,13,35,15.30
2015,10,12,13,36,15.30
2015,10,12,13,37,15.30
2015,10,12,13,38,15.30
2015,10,12,13,39,15.30
2015,10,12,13,40,15.30
2015,10,12,13,41,15.20
2015,10,12,13,42,15.20
2015,10,12,13,43,15.20
2015,10,12,13,44,15.20
2015,10,12,13,45,15.30
2015,10,12,13,46,15.30
2015,10,12,13,47,15.30
2015,10,12,13,48,15.30
2015,10,12,13,49,15.30
2015,10,12,13,50,15.30
2015,10,12,13,51,15.30
2015,10,12,13,52,15.30
2015,10,12,13,53,15.30
2015,10,12,13,54,15.30
2015,10,12,13,55,15.20
2015,10,12,13,56,15.20
2015,10,12,13,57,15.20
2015,10,12,13,58,15.20
2015,10,12,13,59,15.20
2015,10,12,14,00,15.30
2015,10,12,14,01,15.30
2015,10,12,14,02,15.30
2015,10,12,14,03,15.30
2015,10,12,14,04,15.30
2015,10,12,14,05,15.30
2015,10,12,14,06,15.30
2015,10,12,14,07,15.30
2015,10,12,14,08,15.30
2015,10,12,14,09,15.30
2015,10,12,14,10,15.40
2015,10,12,14,11,15.40
2015,10,12,14,12,15.40
2015,10,12,14,13,15.50
2015,10,12,14,14,15.50
2015,10,12,14,15,15.60
2015,10,12,14,16,15.60
2015,10,12,14,17,15.60
2015,10,12,14,18,15.60
2015,10,12,14,19,15.60
2015,10,12,14,20,15.60
2015,10,12,14,21,15.60
2015,10,12,14,22,15.50
2015,10,12,14,23,15.50
2015,10,12,14,24,15.50
2015,10,12,14,25,15.50
2015,10,12,14,26,15.50
2015,10,12,14,27,15.50
2015,10,12,14,28,15.50
2015,10,12,14,29,15.50
2015,10,12,14,30,15.50
2015,10,12,14,31,15.50
2015,10,12,14,32,15.50
2015,10,12,14,33,15.50
2015,10,12,14,34,15.50
2015,10,12,14,35,15.50
2015,10,12,14,36,15.60
2015,10,12,14,37,15.60
2015,10,12,14,38,15.60
2015,10,12,14,39,15.70
2015,10,12,14,40,15.70
2015,10,12,14,41,15.70
2015,10,12,14,42,15.70
2015,10,12,14,43,15.70
2015,10,12,14,44,15.70
2015,10,12,14,45,15.70
2015,10,12,14,46,15.60
2015,10,12,14,47,15.60
2015,10,12,14,48,15.60
2015,10,12,14,49,15.60
2015,10,12,14,50,15.60
2015,10,12,14,51,15.60
2015,10,12,14,52,15.70
2015,10,12,14,53,15.70
2015,10,12,14,54,15.70
2015,10,12,14,55,15.70
2015,10,12,14,56,15.60
2015,10,12,14,57,15.70
2015,10,12,14,58,15.70
2015,10,12,14,59,15.70
2015,10,12,15,00,15.70
2015,10,12,15,01,15.70
2015,10,12,15,02,15.70
2015,10,12,15,03,15.70
2015,10,12,15,04,15.70
2015,10,12,15,05,15.70
2015,10,12,15,06,15.70
2015,10,12,15,07,15.70
2015,10,12,15,08,15.70
2015,10,12,15,09,15.70
2015,10,12,15,10,15.70
2015,10,12,15,11,15.70
2015,10,12,15,12,15.70
2015,10,12,15,13,15.60
2015,10,12,15,14,15.60
2015,10,12,15,15,15.60
2015,10,12,15,16,15.50
2015,10,12,15,17,15.50
2015,10,12,15,18,15.40
2015,10,12,15,19,15.40
2015,10,12,15,20,15.40
2015,10,12,15,21,15.30
2015,10,12,15,22,15.30
2015,10,12,15,23,15.30
2015,10,12,15,24,15.30
2015,10,12,15,25,15.20
2015,10,12,15,26,15.20
2015,10,12,15,27,15.20
2015,10,12,15,28,15.20
2015,10,12,15,29,15.20
2015,10,12,15,30,15.20
2015,10,12,15,31,15.30
2015,10,12,15,32,15.30
2015,10,12,15,33,15.30
2015,10,12,15,34,15.30
2015,10,12,15,35,15.30
2015,10,12,15,36,15.30
2015,10,12,15,37,15.30
2015,10,12,15,38,15.20
2015,10,12,15,39,15.30
2015,10,12,15,40,15.30
2015,10,12,15,41,15.30
2015,10,12,15,42,15.30
2015,10,12,15,43,15.20
2015,10,12,15,44,15.20
2015,10,12,15,45,15.20
2015,10,12,15,46,15.10
2015,10,12,15,47,15.10
2015,10,12,15,48,15.00
2015,10,12,15,49,15.00
2015,10,12,15,50,15.00
2015,10,12,15,51,15.00
2015,10,12,15,52,15.00
2015,10,12,15,53,14.90
2015,10,12,15,54,14.90
2015,10,12,15,55,14.90
2015,10,12,15,56,14.90
2015,10,12,15,57,14.90
2015,10,12,15,58,14.90
2015,10,12,15,59,14.90
2015,10,12,16,00,14.90
2015,10,12,16,01,14.90
2015,10,12,16,02,14.90
2015,10,12,16,03,14.90
2015,10,12,16,04,14.90
2015,10,12,16,05,14.90
2015,10,12,16,06,14.90
2015,10,12,16,07,15.00
2015,10,12,16,08,15.00
2015,10,12,16,09,15.00
2015,10,12,16,10,15.10
2015,10,12,16,11,15.10
2015,10,12,16,12,15.20
2015,10,12,16,13,15.20
2015,10,12,16,14,15.20
2015,10,12,16,15,15.20
2015,10,12,16,16,15.20
2015,10,12,16,17,15.20
2015,10,12,16,18,15.20
2015,10,12,16,19,15.30
2015,10,12,16,20,15.20
2015,10,12,16,21,15.20
2015,10,12,16,22,15.20
2015,10,12,16,23,15.20
2015,10,12,16,24,15.20
2015,10,12,16,25,15.20
2015,10,12,16,26,15.20
2015,10,12,16,27,15.20
2015,10,12,16,28,15.30
2015,10,12,16,29,15.30
2015,10,12,16,30,15.30
2015,10,12,16,31,15.30
2015,10,12,16,32,15.30
2015,10,12,16,33,15.30
2015,10,12,16,34,15.30
2015,10,12,16,35,15.30
2015,10,12,16,36,15.30
2015,10,12,16,37,15.30
2015,10,12,16,38,15.30
2015,10,12,16,39,15.20
2015,10,12,16,40,15.20
2015,10,12,16,41,15.10
2015,10,12,16,42,15.10
2015,10,12,16,43,15.10
2015,10,12,16,44,15.10
2015,10,12,16,45,15.10
2015,10,12,16,46,15.10
2015,10,12,16,47,15.00
2015,10,12,16,48,14.90
2015,10,12,16,49,14.90
2015,10,12,16,50,14.90
2015,10,12,16,51,14.80
2015,10,12,16,52,14.80
2015,10,12,16,53,14.80
2015,10,12,16,54,14.80
2015,10,12,16,55,14.80
2015,10,12,16,56,14.90
2015,10,12,16,57,14.90
2015,10,12,16,58,14.90
2015,10,12,16,59,14.90
2015,10,12,17,00,14.90
2015,10,12,17,01,14.90
2015,10,12,17,02,14.90
2015,10,12,17,03,14.90
2015,10,12,17,04,14.90
2015,10,12,17,05,14.80
2015,10,12,17,06,14.80
2015,10,12,17,07,14.80
2015,10,12,17,08,14.80
2015,10,12,17,09,14.80
2015,10,12,17,10,14.80
2015,10,12,17,11,14.80
2015,10,12,17,12,14.80
2015,10,12,17,13,14.80
2015,10,12,17,14,14.70
2015,10,12,17,15,14.70
2015,10,12,17,16,14.70
2015,10,12,17,17,14.70
2015,10,12,17,18,14.70
2015,10,12,17,19,14.70